Find Starlink 11713

NORAD ID: 64070 Int'l Des: 2025-107 Owner: SPXS Country: US Constellation: starlink operational
別名: STARLINK-11713 [DTC] celestrak
LEOCIRCULAR

現在のビュー

3D地球を読み込み中...

About Starlink 11713

Starlink 11713 (NORAD 64070) is a starlink constellation satellite (v2 mini d2c) launched May 21, 2025 by SPXS of US. It operates in LEO, CIRCULAR orbit with a mass of 960.00 kg.

次回通過

Passes for default location (London). Set your location on the main map for personalized predictions.

高度履歴

Loading altitude history...

軌道要素

1 64070U 25107G 26237.48673865 .00233472 00000-0 17690-2 0 9995
2 64070 43.0016 160.9396 0000529 341.6023 18.4825 15.70884148 73848
Epoch: Aug 25, 2026 • Age: 30 hours

現在のステータス

高度 355.1 km
遠地点 / 近地点 N/A
速度 7.70 km/s
衛星直下点 27.07°N, 66.69°E
打ち上げ日 May 21, 2025
運用期間 1.2 years
タイプ internet

技術仕様

分類 Payload
質量 960.00 kg
乾燥質量 910.00 kg
総質量 960.00 kg
長さ 0.30 m
直径 4.10 m
スパン 29.00 m
形状 Box + pan
製造者 SPXS
バスタイプ Starlink V2MD
フェーズステータス In Orbit
所有者/国 SPXS/US

Most Searched